{"data":{"norad_id":57757,"intl_designator":"2023-133B","name":"BB4","alt_names":[],"object_type":"PAYLOAD","status":"ACTIVE","operator":null,"country":"US","launch_date":"2023-09-02","launch_site_code":"AFWTR","launch_vehicle":null,"mission":null,"orbit_class":"UNKNOWN","rcs_meters":null,"size_class":null,"mass_kg":null,"dimensions":null,"purposes":[],"wikipedia_slug":null,"has_3d_model":false,"image_url":null,"decayed_at":null,"tle_current":{"epoch":"2026-09-18T02:06:49.167648Z","epoch_age_seconds":514616,"freshness":"STALE","line1":"1 57757U 23133B   26261.08806907  .00001094  00000+0  13016-3 0  9995","line2":"2 57757  81.0002 258.4718 0010714  52.3064 307.9117 14.83729947155061","mean_motion":14.83729947,"eccentricity":0.0010714,"inclination_deg":81.0002,"raan_deg":258.4718,"arg_perigee_deg":52.3064,"mean_anomaly_deg":307.9117,"bstar":0.00013016,"rev_number":15506,"period_min":97.052701734004,"perigee_km":610.07997037171,"apogee_km":625.07038242329,"semimajor_km":6995.7121763975,"source":"CELESTRAK","updated_at":"2026-09-23T09:00:18.336847Z"}}}